Regional Weather Roundup
Issued by NWS

Home | Current Version | Previous Version | Graphics & Text | Print | Product List | Glossary On
Versions: 1 2 3 4 5 6 7 8 9 10 11 12 13 14 15 16 17 18 19 20 21 22 23 24 25 26 27 28 29 30 31 32 33 34 35 36 37 38 39 40 41 42 43 44 45 46 47 48 49 50
000
ASUS44 KMEG 010910
RWRTN
TENNESSEE HOURLY STATE WEATHER ROUNDUP
NATIONAL WEATHER SERVICE MEMPHIS TN
400 AM CDT SAT AUG 01 2015

TNZ002-004-019-021-049-052-054-088>092-011000-
WEST TENNESSEE

CITY           SKY/WX    TMP DP  RH WIND       PRES   REMARKS
MEMPHIS INTL   PTCLDY    77  66  68 N3        30.01S
NWS MEMPHIS      N/A     69 N/A N/A MISG        N/A
JACKSON        PTCLDY    67  64  90 CALM      30.01F
DYERSBURG        N/A    N/A N/A N/A MISG        N/A
PARIS          CLEAR     63  63 100 CALM      30.02F
LEXINGTON      CLEAR     66  66 100 N3        30.00F
$$

TNZ008-025-027-028-033-062-065-066-011000-
NORTH MIDDLE TENNESSEE

CITY           SKY/WX    TMP DP  RH WIND       PRES   REMARKS
NASHVILLE      CLEAR     68  65  90 CALM      30.01F
CLARKSVILLE    CLEAR     68  66  93 CALM      30.01F
SMYRNA         CLEAR     64  62  93 CALM      30.02F
CROSSVILLE     CLEAR     61  58  90 CALM      30.07F
$$

TNZ061-075-076-078-094-096-097-011000-
SOUTH MIDDLE TENNESSEE

CITY           SKY/WX    TMP DP  RH WIND       PRES   REMARKS
FAYETTEVILLE   CLEAR     64  59  82 N6        30.01F
TULLAHOMA      CLEAR     61  57  88 CALM      30.03F
WINCHESTER     CLEAR     59  59 100 CALM      30.02F
MCMINNVILLE    CLEAR     61  61 100 CALM      30.03F
COLUMBIA       CLEAR     64  64 100 CALM      30.01S
SHELBYVILLE    CLEAR     63  61  94 CALM      30.03F
$$

TNZ017-018-042-046-047-011000-
NORTHEAST TENNESSEE

CITY           SKY/WX    TMP DP  RH WIND       PRES   REMARKS
TRI CITIES     CLEAR     59  58  96 CALM      30.05S
ELIZABETHTON   SUNNY     57  55  94 CALM      30.06S
$$

TNZ012-013-036-069-073-074-011000-
CENTRAL EAST TENNESSEE

CITY           SKY/WX    TMP DP  RH WIND       PRES   REMARKS
KNOXVILLE      CLEAR     65  61  87 NE3       30.01F
OAK RIDGE      CLEAR     64  61  90 CALM      30.04S
GATLINBURG     SUNNY     61  57  88 CALM      30.03S
MORRISTOWN     SUNNY     63  61  94 CALM      30.05S
$$

TNZ083-085-099-011000-
SOUTHEAST TENNESSEE

CITY           SKY/WX    TMP DP  RH WIND       PRES   REMARKS
CHATTANOOGA    CLEAR     66  62  87 CALM      29.99F
$$

SKY/WX REPORTED AS FAIR MEANS FEW OR NO CLOUDS BELOW
12 THOUSAND FEET.



USA.gov is the U.S. government's official web portal to all federal, state and local government web resources and services.